RH
43 45 48 53 58 61 63 64 66 68 72 75 75 76 76 75 74 73 73 75 75 74 74 74 72 71 71 70 70 69 69 69 68 68 69 68 67 67 67 67 66 66 65 64 62 60 59 58 60 61 61 59 57 56 53 48 43 36 30 28 29 29 27 24 21 19 18 17 17 17 16 16 19 26 31 34 37 40 42 44 48 53 59 61 61 61 62 65 68 71 73 76 78 82 86 88 87
35 36 37 38 40 43 45 45 47 48 50 52 54 55 57 57 58 58 59 62 64 66 67 66 65 64 63 61 60 60 59 59 59 59 58 57 56 54 54 54 54 55 54 54 53 51 51 53 56 58 57 54 51 48 43 36 30 27 27 27 25 23 20 19 18 17 16 16 17 18 21 26 33 39 39 40 43 46 50 53 54 59 66 70 73 74 75 75 75 74 75 80 82 82 81 79 76
29 30 31 31 32 33 35 36 37 38 38 39 40 41 42 43 43 43 44 47 50 51 52 52 52 51 50 50 49 50 50 49 50 49 48 47 46 46 47 46 46 46 46 46 45 46 48 51 53 51 47 42 38 33 29 26 25 25 24 22 19 18 17 16 16 16 16 19 22 25 29 34 40 41 42 47 51 55 57 60 58 62 66 68 68 67 67 65 62 59 59 63 65 66 68 68 63
24 27 28 29 30 30 31 31 31 32 32 32 32 33 34 35 36 36 37 39 41 41 41 42 42 42 42 42 42 43 42 43 43 42 42 41 41 41 40 39 40 41 41 41 42 43 44 44 41 36 32 27 26 24 24 24 23 21 19 18 17 16 15 16 17 20 23 26 27 29 34 38 41 43 46 49 50 50 48 46 43 43 44 43 42 41 41 39 38 37 38 42 51 60 64 59 49
16 19 21 23 23 24 25 25 24 25 23 22 22 21 22 24 24 25 27 29 30 31 32 33 34 35 35 35 35 36 36 36 36 36 36 35 35 33 33 35 36 36 37 36 36 36 33 30 27 24 22 22 22 23 23 21 20 18 17 16 14 15 17 20 22 24 25 28 31 34 36 36 36 35 35 34 33 30 28 27 26 26 25 26 26 25 27 28 28 26 28 31 43 56 54 42 34
9 10 11 11 12 12 13 13 13 13 13 12 11 11 12 12 13 14 15 16 17 18 20 21 24 25 26 27 26 27 28 29 29 29 30 30 30 30 33 34 35 39 38 34 30 27 25 23 22 22 22 22 22 21 20 19 18 16 15 15 17 21 22 22 22 25 27 29 30 28 26 24 22 21 20 20 20 20 20 21 22 23 24 25 25 25 28 30 31 30 33 34 38 41 37 31 29
9 9 9 9 9 8 8 9 9 9 9 9 9 9 9 9 9 9 10 10 11 11 12 13 14 15 16 18 19 21 21 23 26 27 28 28 28 30 33 40 51 49 36 29 27 24 23 22 22 22 22 21 21 20 19 17 16 15 18 20 22 23 22 23 25 27 26 23 20 18 17 16 16 15 15 15 15 16 17 18 20 22 23 25 25 26 29 34 37 37 39 40 38 34 32 31 30
10 9 9 9 9 9 9 9 9 9 9 9 9 9 9 10 10 10 10 10 10 10 10 11 11 12 13 14 17 18 20 22 23 24 26 27 31 35 40 54 61 43 26 27 29 27 24 23 22 23 24 23 21 18 17 17 19 21 23 24 25 26 27 27 24 21 18 16 15 14 13 12 12 11 11 11 12 13 14 15 17 19 22 23 23 23 31 43 45 42 41 40 39 36 35 33 31
9 9 9 9 9 9 9 9 9 9 10 9 9 10 10 10 10 11 11 11 11 11 11 11 12 13 14 15 17 17 18 19 21 29 36 42 43 42 42 45 47 37 32 32 28 26 24 24 26 26 24 21 18 18 21 24 26 27 28 29 30 28 26 21 17 16 15 14 12 10 9 8 9 9 11 11 12 13 14 15 17 19 22 22 20 23 33 42 40 39 39 38 38 36 35 33 32
8 8 8 8 8 8 8 9 9 9 9 9 10 10 10 10 11 10 10 11 11 11 12 12 13 14 15 16 17 18 19 23 40 53 53 48 38 36 38 39 53 51 37 30 26 25 27 29 27 23 21 21 23 27 30 32 33 34 34 31 26 21 18 16 15 13 11 9 8 8 7 8 9 11 12 12 13 13 14 14 16 19 21 21 19 27 40 41 34 34 36 39 40 36 35 33 31
9 9 8 8 8 8 8 8 9 9 8 9 9 9 10 10 9 10 10 10 11 12 13 14 16 17 19 20 21 21 23 32 51 56 44 34 34 46 51 54 62 45 26 29 31 31 31 28 24 24 27 30 34 36 38 41 41 37 31 23 18 16 15 14 12 9 8 7 7 7 8 10 10 11 10 10 11 11 12 13 16 18 19 20 21 32 44 45 39 38 41 46 43 36 34 32 31
11 10 10 10 9 9 9 9 9 9 9 9 9 10 10 10 11 11 11 13 14 15 17 18 19 21 23 23 25 25 26 29 35 35 29 33 49 62 59 54 45 28 27 35 31 29 28 27 31 36 39 42 45 48 49 46 38 28 21 18 16 15 12 10 9 8 8 7 8 9 10 10 9 9 9 10 10 10 12 14 17 19 21 24 30 35 40 44 45 46 50 49 42 34 34 32 31
12 11 11 11 11 11 11 11 11 10 11 10 11 11 11 12 13 13 14 16 17 19 21 21 22 23 25 25 26 25 25 26 26 27 25 37 54 56 51 44 32 29 34 31 27 31 34 38 44 48 52 56 58 55 47 35 24 19 18 17 15 11 10 9 8 8 7 9 10 10 9 9 9 9 11 13 14 14 14 15 19 22 27 33 39 43 44 49 52 53 53 45 38 34 34 31 30
12 11 10 10 10 10 10 10 11 11 11 11 12 11 12 12 13 15 16 16 18 19 19 21 22 22 23 23 24 23 24 24 24 25 24 39 51 47 45 38 29 32 31 30 36 43 48 54 60 65 67 64 55 43 31 23 19 18 17 14 12 10 10 9 8 8 9 10 10 9 8 8 9 11 15 17 18 19 19 21 26 32 38 43 47 51 53 57 56 53 47 39 36 33 33 33 36
10 10 9 9 9 9 9 9 9 9 9 9 10 10 11 11 13 14 14 16 16 17 19 19 18 20 21 21 21 21 21 21 21 24 27 38 45 41 37 30 29 34 36 44 52 58 67 72 74 70 61 49 37 28 22 20 18 17 15 12 11 10 9 9 9 10 10 10 9 9 8 9 11 14 18 20 23 25 25 28 34 40 46 50 51 51 51 52 49 45 40 37 35 34 40 46 50
10 9 9 9 9 8 8 8 8 8 8 8 8 9 9 10 12 12 14 14 13 16 16 18 21 20 20 19 20 20 20 24 24 24 28 32 34 31 30 32 38 45 51 60 67 75 80 75 65 51 40 32 25 22 21 19 17 15 13 11 10 10 9 9 10 11 10 9 9 9 10 13 16 18 23 29 34 35 37 40 41 44 49 55 54 49 47 44 42 40 39 38 38 48 62 68 73
11 11 12 12 12 12 11 10 9 9 9 8 9 9 9 11 10 12 13 12 25 29 15 36 64 55 41 27 21 26 26 29 29 27 30 31 32 34 39 45 51 59 68 76 80 77 66 53 42 33 28 24 22 21 19 17 15 13 12 11 11 10 9 10 11 10 9 9 10 12 15 20 22 26 31 36 41 43 45 46 45 47 52 55 51 50 48 45 45 44 46 52 60 74 85 89 91
17 18 17 16 14 13 12 12 11 10 10 9 10 9 10 11 11 14 13 15 36 40 26 57 95 91 76 50 31 33 31 32 33 34 37 39 43 48 53 60 69 80 84 80 69 54 42 34 29 26 24 22 21 18 16 14 12 13 12 11 11 10 10 11 11 10 10 10 13 15 19 23 27 31 35 39 45 46 45 46 46 48 51 50 51 59 60 57 58 61 71 82 88 93 99 102 96
23 21 19 17 16 15 14 13 12 12 12 12 12 12 12 13 14 15 17 18 22 40 65 89 100 96 82 55 39 40 40 43 45 47 52 56 60 64 71 80 87 85 72 56 43 34 30 27 25 24 24 21 17 14 13 12 13 14 13 12 11 10 11 11 10 10 11 13 16 18 21 24 25 30 35 39 47 50 47 46 44 46 55 58 65 80 83 80 84 90 98 100 99 101 105 105 96
29 25 24 23 22 21 20 18 18 19 19 19 18 17 17 17 19 19 22 26 24 49 92 97 79 66 56 50 55 61 63 65 66 68 71 73 77 82 87 86 74 57 43 35 30 28 27 26 28 26 22 17 13 13 13 13 14 14 12 12 11 12 13 11 11 11 12 14 18 20 22 25 25 29 34 35 42 51 57 57 52 52 67 79 87 96 98 97 101 102 102 100 102 106 107 102 97
36 35 37 39 37 35 33 30 28 29 28 28 29 28 29 29 31 32 31 35 37 51 70 69 59 56 65 79 86 88 87 84 83 83 84 86 88 85 76 59 43 35 32 31 28 28 30 32 30 24 18 14 14 13 13 14 15 13 12 12 11 13 13 12 12 13 14 16 20 23 24 26 28 30 32 35 44 53 60 70 71 67 76 93 100 100 100 100 101 100 100 100 105 108 104 101 99
45 49 53 55 55 55 51 48 45 45 45 44 47 48 50 51 50 56 61 63 66 70 76 81 87 91 99 105 102 99 96 93 92 91 88 83 73 59 45 37 35 37 34 31 30 32 34 31 24 18 15 15 14 14 14 15 14 13 12 12 13 14 13 13 14 15 17 20 23 25 26 29 30 32 34 41 56 62 63 75 85 85 89 98 101 100 100 100 99 100 100 98 103 105 100 100 100
54 59 62 63 66 69 66 66 67 65 66 66 71 73 74 79 82 86 93 97 99 101 104 106 109 110 110 107 103 101 98 96 91 82 70 56 45 38 36 38 38 35 32 30 32 33 30 23 18 16 16 16 16 15 15 15 14 13 12 13 14 14 13 13 16 17 20 24 25 27 29 31 33 36 39 47 66 77 74 78 88 95 99 100 100 100 99 100 100 100 100 98 102 105 101 100 100
67 70 72 75 76 78 73 72 77 78 83 86 89 91 92 97 102 104 107 111 111 110 112 109 108 108 105 103 100 95 89 79 66 53 45 40 39 38 37 35 32 29 29 30 30 27 21 18 17 17 17 17 16 16 15 15 13 13 13 14 15 15 14 14 17 20 22 26 29 33 34 36 40 46 54 62 76 84 82 85 93 98 100 100 100 100 99 100 100 100 100 100 101 104 103 102 100
78 80 84 89 87 85 80 77 82 86 93 100 103 103 105 107 107 108 110 110 108 106 106 105 104 102 98 92 83 72 61 51 46 44 42 41 38 33 30 28 26 26 26 26 23 19 18 18 18 18 18 17 16 15 15 15 13 13 13 14 16 17 15 16 19 22 26 29 35 44 46 47 53 61 69 76 82 83 83 88 95 100 100 100 100 100 100 100 100 100 100 100 100 101 102 103 102
81 85 90 93 90 87 89 89 90 95 99 103 106 107 107 108 105 103 104 104 103 103 102 99 94 85 75 65 55 48 46 46 47 44 38 35 30 26 25 22 22 22 21 21 19 19 19 19 18 18 17 16 15 15 15 14 14 13 14 15 17 18 17 17 20 25 31 37 44 54 57 61 70 75 75 77 78 80 85 89 93 98 99 99 101 100 100 99 100 100 99 100 99 97 97 99 102
84 87 91 93 90 89 95 97 94 96 100 100 100 101 102 102 102 101 101 100 95 89 82 73 64 55 50 47 46 47 46 45 39 35 36 34 27 21 19 18 19 20 20 20 20 20 19 18 18 17 16 14 14 15 15 14 14 14 14 15 16 19 19 18 21 27 35 44 53 62 68 71 78 82 80 80 80 78 83 91 96 99 99 98 98 100 101 100 100 99 100 100 99 98 96 93 94
90 90 94 97 95 95 98 97 95 93 93 95 94 96 102 101 96 90 84 77 68 59 52 48 48 47 48 47 45 42 38 35 35 41 45 36 22 17 18 19 19 20 20 20 20 18 17 17 16 15 14 14 15 15 15 14 15 15 15 15 16 19 21 21 22 27 35 47 58 70 79 83 86 85 84 86 86 82 83 90 96 98 100 99 96 96 99 101 100 100 100 100 101 99 95 89 86
89 86 94 103 102 101 100 97 98 95 89 89 89 89 90 82 72 62 55 51 49 47 50 53 52 48 44 41 37 34 34 38 44 52 46 27 18 19 21 20 20 20 20 20 18 17 16 16 15 15 14 15 15 15 15 15 15 15 15 15 16 18 21 23 24 26 32 42 54 68 80 90 97 97 94 92 91 88 86 87 89 92 95 99 97 92 93 97 99 100 100 99 101 101 98 90 82
84 81 88 102 108 103 98 92 89 83 75 73 71 66 61 55 50 48 48 49 54 61 67 62 48 40 38 37 36 36 42 47 52 54 38 21 21 23 22 22 21 20 20 19 17 17 16 16 15 15 15 16 17 16 16 16 16 16 16 16 16 18 20 24 26 27 29 34 42 54 67 80 92 97 97 96 94 92 89 88 88 89 92 94 94 90 88 93 97 100 102 100 101 101 101 92 81
92 88 89 99 103 94 84 76 68 61 57 55 53 51 49 48 50 52 54 56 63 71 70 55 42 41 42 42 44 45 50 53 53 48 31 21 25 25 23 22 20 20 19 18 17 17 17 17 16 16 17 18 17 17 17 17 17 18 18 18 18 18 19 21 23 25 27 29 32 38 46 58 70 82 88 91 91 90 90 89 89 90 92 91 88 85 84 89 95 101 103 102 103 102 102 97 87
100 101 97 92 85 73 66 61 58 55 55 58 60 58 55 53 53 53 54 55 59 63 57 48 44 45 44 44 46 48 50 50 49 41 27 24 27 25 22 20 19 20 19 18 18 18 18 18 18 19 19 19 18 18 18 18 19 20 21 21 21 20 20 20 19 21 23 26 28 30 33 38 45 55 66 76 83 85 86 85 84 84 87 89 87 83 80 82 88 97 103 103 105 104 101 101 95
101 104 96 82 70 60 58 57 58 61 65 67 63 59 57 54 52 50 51 53 55 55 51 49 48 46 43 42 41 42 43 49 48 34 24 25 26 23 21 20 20 20 19 19 19 19 20 20 20 20 20 20 20 20 20 20 21 22 23 23 24 23 23 22 22 21 22 23 24 26 29 31 32 35 40 48 57 66 73 77 78 77 78 81 83 83 83 82 82 88 97 101 105 106 103 103 102
99 99 89 75 65 60 59 59 59 63 61 57 54 53 53 55 55 51 51 54 54 53 50 48 46 44 42 40 40 39 43 52 43 26 23 27 25 22 20 20 20 20 20 20 21 22 22 22 22 22 22 22 21 21 21 22 23 24 25 25 25 26 27 27 27 27 27 26 26 25 26 27 28 30 31 32 35 40 47 55 63 68 72 74 75 78 80 83 84 85 90 94 98 101 103 105 104
89 87 80 72 69 72 75 71 65 60 53 59 68 61 55 60 61 54 50 51 50 48 45 43 41 41 41 41 42 38 41 49 36 22 25 26 23 22 20 21 21 21 22 22 23 24 24 24 25 24 24 24 22 22 22 23 25 26 26 27 27 28 29 30 31 32 32 33 32 32 31 31 30 30 30 30 30 30 31 34 39 46 54 61 66 70 72 75 77 80 85 88 92 96 100 104 103
76 73 70 69 75 83 81 69 58 51 54 72 81 68 59 64 64 55 53 53 49 44 41 40 40 42 43 42 41 35 36 41 29 22 26 25 23 22 21 22 22 22 23 24 25 25 26 27 26 27 26 25 24 24 24 25 26 27 28 29 29 30 31 32 33 34 35 35 35 35 36 36 36 36 35 33 32 32 32 30 30 30 34 39 46 53 60 65 67 70 74 79 83 88 95 100 102
80 83 83 81 82 81 68 57 57 63 72 78 72 63 59 59 60 57 56 56 49 43 40 40 40 40 40 39 37 31 32 33 25 23 25 24 24 22 22 23 23 24 25 26 27 27 28 28 28 28 27 27 27 27 28 29 30 30 30 30 31 32 33 34 35 36 37 37 37 38 38 38 38 38 38 38 38 38 38 36 35 33 31 30 31 34 38 45 51 57 62 66 71 75 82 87 92
90 88 84 81 76 68 59 64 76 81 84 77 63 60 58 53 54 53 52 51 46 40 38 40 40 38 38 35 33 31 30 28 23 23 24 24 25 23 24 24 25 26 26 27 28 28 29 29 29 29 29 30 30 31 33 34 34 33 32 33 33 34 35 36 38 40 40 41 43 43 44 44 44 44 43 42 42 43 43 42 41 39 38 37 35 33 32 32 34 38 43 48 54 60 66 73 79
76 70 67 68 65 61 66 79 85 79 73 67 60 64 68 62 54 48 47 45 41 38 38 40 40 40 38 33 34 33 28 24 23 24 25 25 26 25 25 26 27 27 27 29 29 29 29 29 29 30 30 31 31 33 35 35 36 35 36 36 36 37 38 39 40 42 43 44 46 47 48 49 50 50 50 49 48 47 47 45 44 43 42 41 41 39 38 37 35 33 33 33 35 38 44 50 58
65 64 68 76 77 74 80 85 79 70 67 64 61 67 74 71 57 46 43 40 37 37 37 39 40 41 39 33 34 34 26 23 23 24 25 27 27 26 27 28 28 28 29 29 29 29 29 29 30 31 31 31 32 34 35 36 35 36 37 38 38 39 39 40 41 42 43 44 45 47 48 48 50 51 51 52 52 51 51 49 48 47 46 45 44 44 43 42 41 40 38 36 35 33 32 33 35
78 77 81 90 90 85 86 85 76 70 68 64 59 61 65 63 54 44 39 37 37 39 38 40 41 42 40 33 33 34 26 22 24 24 26 28 28 28 28 29 29 30 30 30 30 29 29 30 30 30 31 31 32 34 34 34 35 36 38 38 39 39 39 41 42 43 43 44 46 46 47 47 48 49 49 50 50 50 51 51 51 51 51 50 49 48 47 46 44 43 42 41 40 39 38 36 33
90 88 90 88 82 81 85 83 76 70 67 63 56 53 55 53 50 45 42 39 41 42 41 42 43 43 41 34 33 34 26 22 25 26 27 28 29 29 29 30 31 30 31 31 30 29 29 31 31 31 31 31 31 32 33 34 35 37 37 38 38 38 40 41 43 44 45 46 47 47 47 48 48 48 48 49 49 49 49 50 50 50 51 51 51 51 50 49 48 46 45 43 42 42 42 41 40
85 85 86 78 71 77 79 73 69 66 64 59 52 50 51 50 51 49 45 43 43 44 42 43 44 42 41 33 32 35 27 22 26 26 28 29 29 29 30 31 32 31 32 32 31 31 31 31 32 32 32 32 31 32 33 33 34 36 36 37 38 38 40 41 43 45 46 48 48 48 48 48 49 50 50 50 50 50 49 49 49 48 49 49 49 50 50 50 50 49 49 48 46 45 44 43 43
77 74 73 70 66 68 67 61 60 58 57 54 52 53 51 50 52 52 51 49 48 48 46 45 42 39 38 31 30 36 27 22 26 27 28 30 29 30 30 31 32 32 33 33 33 32 32 33 33 34 34 33 32 32 32 32 33 34 35 36 37 39 40 40 42 44 47 48 49 50 50 50 50 50 51 52 51 51 50 49 49 48 48 48 47 47 48 47 48 49 49 50 51 50 49 48 47
75 68 67 64 60 60 62 62 57 52 56 60 58 54 51 51 53 55 55 53 51 51 47 43 39 36 36 29 29 35 28 22 26 27 29 30 30 31 31 32 33 33 34 34 35 34 33 34 35 35 36 34 34 33 33 33 33 34 35 36 38 39 40 40 42 44 47 49 50 51 52 51 51 51 52 53 52 52 51 51 51 50 50 49 48 48 47 47 46 46 47 47 48 49 50 51 51
83 78 77 71 61 62 69 70 62 55 59 66 65 56 49 50 53 54 57 56 52 49 45 40 36 35 35 29 31 35 27 22 25 28 30 31 31 32 32 33 34 34 35 35 36 36 35 35 36 37 37 36 35 34 34 34 35 35 36 37 38 39 41 42 43 44 46 48 50 52 53 53 53 53 53 53 53 53 52 53 53 53 53 52 52 51 50 50 49 48 48 47 47 47 47 47 49
89 88 86 77 68 70 76 75 66 61 64 70 70 62 55 61 61 57 61 63 56 48 43 38 35 36 35 31 36 35 26 24 26 29 31 31 32 33 32 33 34 35 36 37 37 37 37 37 38 39 39 39 38 37 37 36 37 38 38 38 40 42 43 44 44 45 46 48 50 51 53 54 54 54 55 55 54 54 55 56 56 57 57 57 57 58 58 58 57 56 55 54 52 51 50 49 48
89 94 86 75 71 73 79 80 68 64 71 76 76 69 69 77 72 60 62 66 57 47 42 39 36 37 35 34 40 38 27 25 27 29 32 32 33 33 33 33 35 36 36 37 38 38 38 38 39 41 42 42 41 40 40 40 40 40 40 41 42 43 44 45 46 46 48 51 53 54 55 56 56 57 57 57 57 58 58 59 61 62 63 63 64 65 65 66 65 65 63 62 60 58 57 56 54
81 95 89 75 78 81 82 84 76 73 80 82 84 79 76 79 70 59 62 66 59 49 42 41 38 38 37 35 37 35 28 26 27 30 33 33 33 33 34 34 35 37 37 38 39 40 40 40 41 43 44 45 45 43 42 42 42 42 43 43 43 44 45 46 48 50 53 56 57 59 60 60 61 61 61 61 61 62 63 64 66 68 69 71 71 71 70 69 68 67 66 65 64 63 62 60 59
74 90 93 81 91 99 91 90 88 86 86 84 88 86 77 72 61 54 60 64 63 52 43 42 39 38 39 35 31 30 29 27 27 30 33 33 34 34 34 36 37 38 39 39 40 41 42 42 43 45 46 47 46 46 45 44 44 45 46 46 47 48 49 50 53 56 58 60 61 62 63 63 63 64 64 65 66 68 69 71 73 75 77 78 78 76 74 72 70 68 66 65 65 64 63 62 62
77 82 89 85 99 106 94 93 93 85 80 84 90 88 83 75 59 52 56 61 65 56 44 43 41 39 40 37 33 29 29 29 27 30 34 34 35 35 35 37 39 40 41 42 42 43 44 43 44 46 46 47 48 47 47 46 47 47 49 50 52 53 54 55 58 60 61 61 62 63 63 64 64 65 66 67 69 70 72 75 77 79 81 82 82 80 77 74 71 69 67 65 65 65 64 63 63
90 85 85 87 101 103 93 94 87 73 72 79 83 85 85 74 58 54 55 59 68 62 48 45 44 41 39 38 37 32 29 31 28 29 35 37 36 36 38 40 41 42 43 44 44 44 45 45 45 47 46 46 47 48 48 48 49 50 51 53 54 55 55 57 61 63 63 63 63 63 64 66 66 67 68 70 72 73 73 73 75 77 79 80 81 79 77 75 73 71 69 67 66 65 64 63 61
94 94 92 92 97 96 95 94 81 72 77 80 80 80 76 64 56 57 56 58 69 67 55 47 44 45 41 36 37 34 29 30 30 30 34 39 40 39 40 42 43 44 45 46 46 46 46 46 46 47 47 47 47 48 49 49 50 52 53 53 54 55 55 56 58 59 60 62 61 61 64 69 71 71 73 74 75 76 75 75 76 78 78 77 77 76 75 74 73 73 71 70 69 66 63 62 61
92 97 97 97 92 86 93 99 91 85 85 81 79 74 64 58 58 58 56 56 65 72 66 51 43 45 45 39 35 35 33 31 30 31 34 38 41 42 43 45 45 45 46 47 47 47 47 47 47 47 46 47 47 48 49 49 50 52 53 54 54 54 55 55 56 56 56 58 58 58 62 68 71 74 78 79 79 80 80 82 82 79 76 75 76 77 76 76 77 76 74 72 69 67 65 64 64
91 92 92 94 87 79 85 99 102 95 81 70 67 62 56 57 59 58 57 54 59 73 75 60 46 45 46 43 39 37 38 36 33 32 34 38 41 44 46 47 47 47 47 47 49 49 49 49 49 48 47 47 48 48 49 50 51 52 53 55 56 55 55 56 57 57 57 57 56 57 61 65 70 76 81 84 86 87 88 90 88 79 75 76 78 80 80 80 80 78 75 72 69 67 66 66 66
82 81 82 82 78 78 86 97 101 93 77 65 60 57 55 57 58 58 59 57 60 75 82 70 57 52 48 45 43 40 40 42 41 36 34 36 40 44 47 48 50 50 49 50 51 52 52 51 50 50 49 49 49 50 51 52 53 53 54 56 58 58 57 57 59 60 60 60 60 61 63 68 73 78 83 86 89 92 93 93 88 78 74 75 77 80 82 83 82 80 77 75 74 73 71 69 69
69 68 71 70 68 77 92 97 92 84 77 69 64 60 57 58 61 59 60 63 67 78 87 80 68 62 55 49 45 43 40 42 45 44 38 36 38 42 46 48 50 52 52 52 52 53 53 53 53 53 53 53 53 54 55 55 55 56 56 58 61 62 62 62 63 63 63 63 64 66 69 72 75 78 83 88 93 98 100 97 90 81 76 75 76 79 82 82 82 81 81 80 80 79 77 75 74
62 56 59 59 62 78 96 94 83 80 81 76 69 63 59 63 66 60 58 65 70 76 86 83 71 63 58 52 49 46 44 43 45 48 46 41 38 39 43 47 50 54 55 54 53 53 53 54 55 56 56 56 57 58 59 60 60 61 62 62 64 66 67 67 67 67 67 67 67 69 73 75 76 77 83 91 98 103 105 103 96 87 81 80 81 83 83 84 83 83 84 84 84 83 81 78 77
Wind_Speed
103 104 104 104 104 104 104 104 104 104 104 104 105 105 104 104 104 104 103 102 102 102 102 102 102 102 102 102 102 102 102 102 102 102 102 102 101 100 100 100 100 100 100 100 100 99 99 98 97 97 97 97 96 96 96 96 95 93 91 89 88 87 86 85 84 82 81 80 80 79 78 77 75 73 72 72 72 71 70 70 69 67 66 66 65 63 62 61 61 61 60 59 59 58 58 58 58
102 103 103 103 104 104 105 105 104 104 105 105 106 105 104 104 104 105 104 104 103 103 103 103 103 103 103 103 103 103 103 103 103 102 101 100 100 99 99 99 99 99 99 98 98 98 97 97 96 95 94 94 94 94 94 93 91 89 87 85 84 83 82 81 80 79 79 78 77 76 74 73 72 71 71 70 70 68 67 66 65 64 64 63 62 62 61 60 60 60 59 58 58 57 57 58 57
98 99 100 101 102 103 103 104 104 104 106 106 106 105 105 105 105 106 105 104 104 103 103 103 103 103 103 102 102 102 102 101 100 100 99 99 98 98 98 97 97 97 97 96 95 95 94 93 93 93 93 93 92 91 89 87 85 83 82 81 80 79 78 78 77 77 76 75 73 72 70 70 70 70 69 68 67 66 66 66 65 64 64 64 63 63 62 62 62 61 60 59 58 58 57 56 55
92 93 94 95 97 98 99 100 100 101 103 103 103 104 104 104 105 105 105 104 104 104 103 103 103 102 102 101 101 101 100 99 98 98 97 97 96 96 96 95 94 93 93 92 92 91 91 91 91 90 89 88 86 85 83 81 80 79 78 77 76 76 76 75 75 74 72 71 69 68 68 68 67 67 67 66 66 66 66 66 66 65 64 64 64 63 62 61 61 60 58 57 56 55 55 54 52
87 88 89 90 92 93 93 94 95 96 97 98 98 98 99 100 101 102 102 102 102 102 102 101 100 100 100 100 100 99 98 97 96 95 94 94 93 92 91 90 89 89 89 89 89 88 87 86 85 83 81 80 79 78 77 76 76 75 74 74 74 73 73 72 71 69 68 66 66 65 65 65 65 65 65 65 65 64 64 64 64 63 62 62 62 61 58 57 57 56 55 54 54 53 51 50 49
84 85 86 87 88 88 89 89 90 91 91 91 91 91 92 92 93 94 94 95 95 96 96 96 96 96 96 96 96 95 94 93 91 90 89 88 87 87 86 85 84 83 82 81 81 80 79 78 76 74 74 73 73 73 73 72 72 72 71 71 71 70 69 68 66 64 63 63 63 63 63 63 63 63 63 62 62 62 61 61 61 61 60 60 60 58 55 54 55 54 52 50 49 50 49 46 44
82 83 84 84 85 85 85 85 86 87 87 87 87 86 86 86 87 87 87 87 88 89 89 89 89 90 90 90 90 89 88 86 85 84 83 83 82 81 80 79 76 74 73 73 73 72 71 70 69 69 70 70 69 69 69 69 69 68 68 68 67 66 64 63 61 61 61 61 61 61 61 61 61 61 62 61 61 60 59 58 58 58 58 59 59 55 52 53 52 50 49 47 46 46 44 41 39
79 80 81 81 82 82 82 82 83 84 84 84 83 83 83 83 83 83 83 83 83 84 83 83 84 83 84 84 84 83 82 80 79 78 77 76 75 74 71 70 70 70 69 67 67 66 65 65 65 66 66 66 66 66 66 65 65 65 64 63 62 60 59 59 59 59 59 60 61 61 61 60 60 60 59 58 57 56 56 55 54 55 56 57 57 52 48 48 48 46 45 46 45 43 40 37 36
74 75 76 77 78 78 78 78 79 80 80 80 80 80 80 80 80 80 80 80 80 79 78 78 78 78 78 78 77 78 76 73 71 68 67 67 66 65 65 66 67 66 62 60 60 59 60 61 61 61 61 61 61 61 61 61 61 60 59 57 57 56 56 57 57 58 58 59 60 60 59 58 56 56 56 55 54 54 54 53 52 53 54 56 55 49 45 46 48 48 45 43 42 40 37 34 34
69 70 71 72 72 73 73 74 75 76 76 76 75 76 76 76 76 77 76 76 75 74 73 73 72 72 71 71 71 70 68 66 62 58 58 59 61 62 62 62 60 57 55 55 55 55 56 56 57 56 56 56 56 56 56 56 55 55 54 54 53 54 55 55 56 57 57 57 57 57 56 55 54 54 54 54 54 53 53 52 51 51 52 54 51 45 42 44 47 46 43 40 38 36 34 32 31
64 65 66 67 67 67 68 69 70 71 71 71 71 71 71 72 72 72 72 71 69 68 68 67 66 65 65 64 64 63 62 60 57 56 57 58 58 58 56 54 53 52 52 52 51 52 52 52 51 51 51 52 51 51 50 50 51 51 52 52 52 52 54 54 55 55 55 55 55 54 53 53 53 52 51 50 50 49 49 47 46 46 47 46 43 40 40 39 40 38 35 34 33 31 29 28 27
59 60 61 62 62 62 63 63 64 65 65 65 65 66 66 66 66 66 66 64 63 62 62 62 61 60 61 60 59 59 58 58 58 59 58 56 54 53 51 50 51 52 51 50 49 48 47 46 46 46 46 46 46 46 46 48 49 50 50 51 52 52 53 53 53 53 53 53 52 52 52 51 49 46 43 41 40 41 40 39 38 38 37 35 33 33 33 32 30 29 28 28 27 25 24 24 23
54 54 55 56 56 57 58 58 59 60 60 60 60 60 60 61 60 60 59 58 58 58 58 58 57 57 58 57 57 57 57 56 57 56 55 53 53 52 52 52 51 50 48 46 44 43 42 41 41 41 41 41 42 44 46 47 48 49 50 50 51 51 51 51 51 51 51 51 51 50 48 45 41 37 34 31 31 31 31 30 29 28 26 25 24 23 23 22 21 21 22 22 22 20 20 20 18
50 51 52 52 53 53 54 55 56 57 57 57 57 57 57 57 56 56 56 56 56 56 56 55 55 56 56 55 55 55 55 54 54 53 52 51 51 52 52 51 49 46 43 40 38 37 36 36 36 36 37 40 42 44 45 46 47 48 49 50 50 50 50 49 49 48 48 48 47 45 41 36 32 28 25 23 22 21 20 18 16 14 13 13 14 14 15 14 15 16 17 18 17 17 17 16 13
47 48 48 49 50 50 51 52 53 54 55 55 55 55 55 54 53 54 54 54 54 54 54 54 53 53 53 53 52 52 52 52 51 51 50 49 49 50 50 47 43 39 36 33 32 31 31 31 33 35 37 40 42 43 44 45 46 47 48 49 48 48 47 47 46 46 45 44 41 37 32 28 24 21 19 17 14 12 9 7 3 3 6 8 10 12 13 13 13 14 14 14 14 13 13 12 11
41 42 43 43 44 45 46 46 47 49 50 50 50 50 51 50 50 51 51 51 51 50 48 46 46 48 49 49 49 48 48 47 47 47 46 46 46 45 43 39 35 31 28 26 26 26 28 30 33 35 37 39 40 41 43 44 45 46 46 46 45 45 45 44 43 42 40 37 34 30 25 21 19 16 14 11 7 4 3 4 7 11 13 14 15 15 15 15 14 13 13 13 12 11 12 13 14
35 35 35 35 35 36 37 38 39 40 41 41 41 42 43 44 44 45 45 44 40 42 40 35 33 36 40 42 42 42 41 41 41 41 40 39 38 36 33 29 25 23 22 22 23 25 27 30 32 34 36 37 39 40 42 43 43 43 43 43 42 42 41 40 39 37 33 30 26 23 19 16 13 11 9 7 8 10 11 12 14 16 17 17 17 17 16 15 14 13 12 12 12 14 16 17 18
26 26 26 26 26 26 27 27 28 29 29 30 30 32 33 35 36 36 37 34 31 32 31 28 26 27 30 33 34 34 34 34 33 33 31 30 28 25 22 20 18 19 19 20 22 24 26 29 31 32 34 36 38 39 40 40 40 40 40 40 40 38 37 36 34 31 27 24 21 18 15 12 10 10 11 13 16 17 18 17 17 20 20 19 19 18 16 14 14 13 13 14 15 17 19 20 21
19 19 18 17 17 16 16 17 18 19 19 20 20 22 23 24 26 26 26 26 25 21 19 22 26 26 26 26 26 26 26 25 24 23 21 20 18 16 14 14 15 17 18 20 21 23 25 27 29 32 35 37 37 37 37 36 37 37 37 37 36 35 33 31 29 26 22 20 18 16 14 12 11 13 14 16 19 20 22 20 17 21 22 20 20 18 16 15 14 15 15 16 17 19 21 23 22
13 13 11 11 9 8 7 7 7 8 9 9 10 12 13 15 16 17 18 18 19 22 22 23 25 23 20 18 17 17 17 16 15 14 12 11 10 10 11 12 14 15 17 18 20 21 24 27 30 33 35 36 35 34 34 34 34 34 34 33 32 31 30 28 25 22 19 18 17 16 15 14 14 16 16 16 18 20 23 22 19 21 24 23 21 20 18 16 15 15 16 16 18 21 22 23 22
10 10 10 10 9 8 6 4 3 3 3 3 4 4 5 7 8 9 11 13 16 21 22 18 16 14 12 11 11 10 10 9 8 7 6 7 7 9 10 11 12 14 16 17 19 22 25 28 31 32 33 32 32 32 32 31 31 31 30 30 28 28 27 25 23 21 19 18 18 17 16 16 16 17 16 17 17 19 23 24 21 21 23 24 23 21 19 16 15 15 15 16 19 22 23 23 21
11 11 12 12 12 13 12 11 11 12 12 13 13 13 13 12 12 13 13 13 14 14 14 12 10 10 10 9 9 8 8 6 5 5 5 5 6 7 8 9 11 14 16 18 20 23 25 28 29 29 29 29 30 30 30 29 28 28 27 27 26 25 24 23 22 20 19 19 19 18 17 17 16 16 16 17 17 19 22 23 23 22 23 25 23 21 18 16 14 14 15 16 19 22 22 23 22
13 13 14 15 15 17 17 17 18 18 19 20 20 20 20 20 19 19 18 17 17 16 15 15 14 13 12 11 9 8 7 6 5 4 3 3 4 6 7 9 12 14 16 19 21 22 24 24 25 25 26 27 28 29 28 27 26 25 25 25 24 24 24 22 21 21 21 20 20 19 18 17 17 16 16 17 19 19 20 21 23 23 23 24 23 20 16 14 14 14 15 16 18 20 22 23 23
15 15 17 17 18 19 20 21 23 23 24 24 23 23 24 24 23 22 20 20 20 19 18 17 15 13 12 10 9 7 7 5 4 2 0 2 4 6 7 9 12 14 17 18 19 20 20 20 21 22 24 25 26 26 25 24 23 23 23 23 23 24 24 23 22 22 22 21 21 21 19 18 17 17 17 17 19 19 19 21 22 23 23 23 22 19 15 13 13 14 15 16 17 19 21 22 22
17 18 19 20 21 22 21 22 24 25 26 25 24 24 24 24 23 22 20 20 19 18 17 16 14 13 11 10 9 8 6 5 4 2 0 2 4 6 8 10 12 14 15 16 16 17 17 18 19 21 22 23 23 23 23 22 21 21 22 22 23 23 24 24 23 23 23 22 22 21 19 18 17 17 16 17 18 18 18 20 21 22 22 21 21 18 15 13 13 14 14 15 16 17 20 21 21
20 21 22 23 24 24 23 22 24 26 27 26 26 25 24 23 22 20 19 19 19 17 15 15 14 13 12 10 9 8 7 5 4 2 1 3 6 8 10 11 12 12 13 13 14 15 16 17 18 19 20 20 20 21 21 20 20 21 22 22 22 24 25 25 24 24 24 23 22 21 19 17 16 16 15 15 16 17 18 18 19 20 20 20 20 19 16 14 13 13 13 13 14 16 18 20 21
23 25 26 26 25 24 23 22 22 24 26 25 25 26 25 25 23 20 19 20 20 18 16 15 14 13 12 10 9 8 7 6 4 4 5 8 10 11 11 11 11 11 12 12 13 14 15 16 16 17 17 18 19 20 20 20 20 21 21 22 23 24 26 26 26 25 24 23 22 20 18 16 14 14 14 14 13 14 16 17 17 17 17 18 19 18 17 15 13 11 11 11 12 13 15 17 20
25 26 27 26 24 22 21 20 20 21 24 24 24 27 28 27 25 22 21 21 20 19 17 15 14 12 11 10 9 8 7 7 6 8 10 12 13 11 11 11 12 12 12 13 13 13 14 15 15 15 17 18 20 21 21 21 22 22 22 22 24 25 26 27 27 26 25 23 22 20 18 15 13 13 13 13 12 12 14 15 16 15 15 15 16 17 16 15 13 11 9 10 10 11 13 15 17
24 24 25 25 22 20 18 19 22 22 24 25 24 26 28 27 25 23 21 20 19 18 16 15 13 12 11 10 9 8 8 8 9 11 13 13 12 11 12 13 13 13 13 13 13 13 14 15 15 17 19 21 22 22 22 23 23 23 24 25 25 26 26 28 29 28 26 23 21 19 17 14 12 12 12 11 11 11 11 12 13 13 13 13 13 14 14 13 12 11 9 8 9 10 12 13 15
23 23 23 23 21 19 19 21 23 24 25 26 24 24 25 24 23 22 20 19 17 16 16 15 15 14 12 11 9 9 9 10 11 12 14 13 12 12 13 13 14 14 14 13 14 15 16 17 18 20 22 23 23 23 24 25 26 27 27 27 27 27 28 28 28 28 28 25 22 19 16 14 12 11 10 10 10 9 9 9 10 10 10 10 11 12 12 11 11 10 9 8 9 10 11 12 13
23 22 22 21 21 21 22 23 24 24 25 25 24 23 22 21 20 19 18 16 15 15 16 16 15 14 13 11 10 9 9 10 11 12 13 13 12 12 13 13 14 14 14 14 16 17 18 19 21 22 23 23 24 25 26 27 29 30 30 30 30 30 29 29 28 29 29 28 26 23 19 15 12 10 9 8 8 8 8 8 8 8 8 7 8 9 10 10 9 9 8 8 9 10 12 12 12
23 22 21 21 21 22 24 25 24 24 24 24 23 22 20 18 17 16 16 15 15 16 16 16 15 15 14 12 11 10 9 10 11 12 12 12 12 12 13 14 15 15 15 16 18 19 20 21 22 23 24 23 24 25 27 28 30 31 32 32 32 32 32 31 31 31 31 30 28 27 25 22 18 13 10 7 6 6 7 6 6 6 6 5 5 6 7 7 7 7 6 7 7 9 12 14 13
22 22 22 22 22 22 23 24 24 23 23 22 21 21 19 17 15 14 15 15 16 16 16 16 15 15 14 14 13 12 11 10 11 12 12 12 12 13 14 15 16 16 17 18 19 21 21 22 23 23 23 23 24 26 27 29 30 31 32 33 34 35 35 36 36 35 34 32 31 30 29 27 25 21 18 13 9 6 4 4 4 4 4 4 3 4 4 4 5 5 5 6 7 9 12 14 15
23 23 24 24 23 22 21 21 21 22 22 21 20 19 18 17 15 14 15 15 16 16 16 16 16 15 15 14 14 14 12 11 11 11 11 12 12 13 15 16 17 17 18 19 21 21 21 22 23 23 23 23 24 26 27 29 30 31 32 33 34 36 37 37 38 38 37 37 36 34 33 31 29 27 25 22 19 15 10 6 3 1 1 1 1 2 3 3 4 4 5 5 7 8 11 15 16
24 24 23 23 23 21 20 19 19 19 20 20 20 18 17 17 15 14 15 16 16 16 16 17 17 17 16 16 15 15 13 11 11 11 11 12 13 14 16 17 18 18 20 21 21 21 21 22 22 23 23 24 25 26 28 29 30 31 32 33 34 35 36 37 37 38 38 38 38 38 37 36 34 33 30 28 26 24 21 17 12 7 3 1 2 2 2 3 4 5 5 6 7 8 10 14 17
25 23 22 20 20 19 19 17 17 17 17 19 19 18 16 16 15 14 14 15 15 16 17 18 18 17 17 16 16 14 11 10 10 10 11 13 14 15 16 18 19 20 21 21 21 21 22 22 22 23 23 24 25 27 29 30 31 32 33 34 34 35 36 36 37 37 37 38 38 38 38 37 37 36 34 33 32 31 29 27 23 19 14 10 5 3 3 5 5 5 6 7 8 9 10 13 16
24 23 21 18 17 16 16 16 15 16 16 17 18 17 16 16 15 14 13 13 13 14 16 17 17 17 17 16 15 13 10 9 9 10 12 14 14 15 17 18 19 20 21 21 21 21 22 22 22 23 24 26 27 29 31 32 33 33 34 35 36 36 37 37 38 38 38 38 38 38 37 36 36 36 35 35 35 34 33 32 30 28 25 22 17 13 8 5 4 6 7 9 10 11 11 13 15
21 21 19 17 15 14 14 14 14 15 15 16 16 16 15 15 13 12 11 11 11 13 15 17 18 18 17 18 17 13 11 10 10 11 13 14 14 15 17 18 20 20 21 21 21 21 22 22 23 24 26 27 29 30 32 33 34 34 35 36 37 38 38 39 39 39 39 39 39 39 38 38 37 37 36 36 35 34 34 33 32 30 29 28 25 23 19 16 11 7 5 6 9 11 13 14 15
18 18 18 17 15 13 12 12 12 13 14 15 16 16 14 11 9 9 9 10 11 12 15 18 18 18 19 20 18 15 12 11 11 12 13 14 15 16 17 19 20 20 20 21 21 21 22 22 23 25 26 28 29 31 33 34 34 35 36 36 37 38 38 39 40 40 40 41 41 40 40 40 39 39 38 38 37 36 34 33 32 31 30 29 28 26 25 23 20 17 14 10 7 6 8 11 15
14 15 16 15 13 11 10 10 11 12 13 14 15 14 11 8 6 6 8 9 11 13 15 18 20 19 19 20 18 15 13 11 11 12 13 13 15 16 17 19 19 20 20 20 20 21 21 22 23 25 26 27 29 31 32 33 33 34 35 36 37 38 38 39 40 40 41 41 41 41 41 42 42 41 41 41 40 39 38 37 36 34 33 31 30 28 26 25 23 22 20 18 16 13 10 7 6
11 12 13 13 11 10 9 10 11 11 12 11 11 11 10 7 6 5 6 9 13 15 17 20 22 20 20 20 18 14 12 11 11 11 12 13 15 16 18 18 18 19 19 19 20 20 21 22 23 24 25 26 28 29 30 31 32 33 34 35 36 36 37 38 39 40 40 41 41 42 42 43 43 44 43 43 43 42 41 40 40 39 38 36 35 33 31 28 26 24 23 21 20 19 17 15 13
9 10 11 11 10 10 9 10 10 9 9 9 8 9 9 8 8 8 8 11 15 16 18 20 22 20 19 19 16 12 10 9 10 11 12 13 15 16 17 18 18 18 18 18 19 20 20 21 22 23 24 25 26 27 28 29 30 31 31 33 34 35 36 37 38 39 39 40 41 41 42 43 44 44 44 44 44 44 44 43 43 42 42 41 40 38 36 34 32 29 27 25 23 22 21 20 18
8 9 10 10 9 9 8 8 9 9 8 8 8 9 9 9 9 10 11 13 15 16 17 19 20 19 17 16 14 10 9 9 9 10 11 13 14 16 17 17 17 17 17 17 18 19 19 20 21 22 22 23 24 25 26 27 27 28 29 31 32 33 34 35 36 37 37 38 39 39 40 41 41 42 43 43 43 43 43 43 43 44 44 43 43 42 41 39 38 35 33 30 28 26 24 23 21
8 9 8 8 8 8 7 7 8 9 9 9 9 10 9 9 10 12 13 14 15 15 16 17 18 16 15 14 12 8 7 8 9 10 11 12 14 15 16 16 16 16 16 16 16 17 18 19 20 20 21 22 22 23 24 25 26 26 27 29 30 30 31 33 34 35 35 36 37 37 38 38 39 39 40 40 40 41 41 42 42 42 42 42 42 42 42 41 40 39 38 36 34 31 29 26 24
8 7 6 6 7 7 7 5 5 7 9 10 10 9 9 9 11 12 12 13 13 13 13 14 15 14 13 12 9 5 5 7 8 9 10 12 13 14 14 15 15 15 15 15 15 15 16 17 18 19 20 20 21 22 23 24 24 25 26 27 28 28 29 31 32 32 33 34 34 35 35 36 36 37 37 38 38 39 39 40 40 41 41 41 41 41 41 40 40 40 39 38 37 35 33 31 29
9 7 5 5 7 7 7 6 5 6 8 10 9 8 9 10 11 11 11 12 12 11 11 12 14 14 12 10 7 3 4 6 8 8 9 11 13 13 13 14 14 14 14 14 14 14 14 16 17 18 18 19 19 20 21 22 23 24 25 25 26 27 27 28 29 30 31 32 32 32 33 33 34 35 35 36 36 37 38 38 39 39 39 39 39 39 39 39 39 39 38 38 37 36 35 34 33
10 8 5 6 7 7 7 6 6 6 7 8 8 7 9 10 10 10 11 12 11 9 9 11 14 15 10 7 4 3 4 5 7 8 9 11 12 12 12 13 13 12 13 13 13 12 13 14 15 16 16 17 18 19 20 20 21 22 23 24 25 25 26 26 27 28 29 30 30 31 31 32 32 33 33 34 34 35 36 37 37 38 38 38 38 39 39 39 39 38 38 37 36 35 35 34 34
10 8 6 6 7 7 6 6 5 5 5 6 6 7 8 9 8 8 11 11 11 9 8 12 15 15 10 4 2 3 4 5 6 7 8 10 11 11 11 11 12 11 11 12 12 11 12 12 13 14 15 16 16 17 18 18 19 20 21 22 22 23 24 25 25 27 28 29 29 30 30 30 31 32 32 32 33 34 35 35 36 37 37 38 38 38 38 38 38 38 37 37 36 36 35 34 34
10 9 7 6 5 4 4 5 5 4 4 4 4 5 6 7 6 7 9 11 12 9 8 12 15 15 10 3 1 3 4 4 6 7 7 9 10 10 9 10 10 10 10 10 10 10 10 11 12 13 13 14 14 15 16 16 17 18 19 20 20 21 22 23 24 25 26 27 27 28 28 29 29 30 31 32 32 33 34 35 35 36 37 37 38 38 38 38 38 38 38 37 37 36 36 35 35
11 10 9 6 4 5 5 5 5 4 4 4 3 2 3 5 5 6 9 11 12 9 9 12 14 14 9 3 1 2 3 4 6 7 7 8 8 8 8 9 9 8 8 8 9 9 9 9 10 10 11 12 12 12 13 14 15 16 17 17 18 19 20 21 22 23 24 25 25 25 26 26 27 28 29 30 31 32 33 34 35 35 36 37 37 37 38 38 39 39 38 38 38 37 37 37 36
12 12 10 7 7 8 8 7 7 7 7 5 3 1 1 3 4 4 8 10 10 9 10 12 13 13 9 3 1 2 2 3 6 8 7 7 7 7 7 8 7 7 7 7 7 7 7 7 7 8 8 9 10 10 11 11 12 13 14 15 16 17 18 19 20 20 21 22 22 23 23 24 24 25 26 27 28 29 30 31 33 34 34 35 36 36 37 38 39 39 39 38 38 38 38 38 38
13 12 11 9 10 9 9 9 9 8 7 6 4 2 1 1 2 3 7 9 8 8 10 11 11 11 9 4 1 1 1 3 5 7 7 6 5 5 6 6 6 5 5 5 5 5 5 5 5 5 6 7 7 8 8 9 10 11 11 12 13 14 15 16 17 17 18 19 19 20 21 22 22 23 24 25 26 27 28 29 30 31 32 33 34 35 36 37 37 38 38 38 39 39 39 39 39
15 14 13 12 11 10 9 9 8 7 6 6 5 5 3 2 1 2 6 8 6 7 9 9 9 10 8 5 2 1 1 2 4 6 6 5 4 4 4 4 4 3 3 3 2 2 2 2 3 3 4 4 5 6 6 7 8 9 9 10 11 12 13 14 14 15 16 16 17 18 20 21 22 23 24 24 25 26 27 28 30 30 31 32 33 34 35 35 36 36 37 38 38 39 40 40 40
17 17 16 14 13 11 9 7 7 6 7 7 7 6 5 4 1 2 5 6 5 6 7 8 8 9 8 5 2 1 1 1 2 4 5 5 4 3 3 2 2 2 2 1 1 0 0 1 1 1 2 3 4 5 5 6 7 7 8 9 10 11 12 12 13 14 15 16 17 18 19 21 22 23 24 24 25 26 28 29 29 30 31 32 32 33 34 35 35 36 36 37 38 39 40 40 41
20 20 19 17 14 12 9 7 7 8 9 9 8 8 7 5 2 1 3 4 4 5 6 8 8 8 8 6 3 2 1 2 1 2 4 5 4 3 2 2 1 1 1 1 2 2 3 3 3 4 4 4 5 5 6 6 7 7 8 9 10 11 12 13 13 14 15 16 17 18 19 20 21 22 23 25 25 26 27 28 29 29 30 31 32 33 34 35 35 35 36 37 38 40 41 41 41
21 21 21 19 15 12 10 9 10 10 10 10 8 8 7 5 2 1 3 3 4 4 5 7 8 9 9 8 5 4 2 1 1 1 3 5 5 5 5 4 3 3 3 3 3 4 4 5 5 5 6 6 7 7 8 8 8 9 9 10 11 12 13 14 15 15 16 16 18 19 20 21 21 22 23 24 25 25 26 27 28 29 29 31 32 33 33 34 34 35 36 38 40 41 42 42 43
21 22 22 19 16 14 12 12 12 12 11 10 10 9 7 4 1 0 2 3 4 4 4 6 7 9 10 10 8 7 4 3 2 2 4 5 7 7 7 7 6 5 6 6 6 6 6 6 6 7 7 7 8 9 10 10 11 11 11 12 13 14 14 15 16 16 17 18 18 19 20 20 20 21 21 23 24 25 26 26 27 28 29 30 31 32 33 33 34 35 37 39 41 42 43 44 44
22 22 21 19 17 16 15 13 12 12 12 12 12 10 7 4 2 3 2 2 4 5 5 6 7 8 10 11 11 9 7 5 4 5 6 7 8 9 10 10 9 9 9 9 9 8 8 8 8 8 8 9 9 10 10 12 13 13 14 14 14 15 16 16 16 17 18 19 20 20 20 20 21 21 21 22 24 24 25 26 26 27 28 29 31 32 33 34 34 36 37 39 41 43 43 44 45
Wind_Direction
261 261 262 262 263 263 264 264 265 265 265 266 266 267 267 268 268 269 269 270 270 270 271 271 272 272 273 274 274 275 276 276 277 277 278 279 280 280 281 282 282 283 283 284 284 285 285 285 285 285 285 286 286 286 286 287 287 288 289 289 289 289 288 288 287 287 287 287 287 287 287 287 286 286 285 284 284 283 282 282 281 280 280 280 280 280 279 279 279 278 278 278 278 277 276 275 273
262 262 262 262 263 263 264 264 265 265 266 266 266 267 268 268 268 269 269 270 270 270 271 271 272 273 273 274 274 275 276 276 277 278 278 279 280 280 281 281 282 282 283 284 284 285 285 285 286 286 286 286 286 286 287 287 288 288 289 288 288 288 288 288 288 288 288 288 288 288 287 287 286 285 285 285 284 284 283 282 281 280 280 280 279 279 278 278 277 277 277 277 276 276 276 275 274
262 263 263 263 263 264 264 264 265 266 266 266 267 267 268 268 268 269 269 270 270 271 271 272 272 273 273 274 274 275 275 276 277 277 278 279 279 280 280 281 282 282 283 284 284 285 285 285 286 286 286 286 286 287 287 288 288 288 288 288 288 288 289 289 289 289 289 289 288 288 287 286 285 285 285 285 285 284 283 282 281 280 279 279 278 277 277 276 276 275 275 274 274 275 275 275 275
264 263 264 264 264 264 265 265 265 266 266 267 267 268 268 268 269 269 269 270 270 271 271 272 272 273 273 274 274 274 275 275 276 277 278 278 279 279 280 281 282 283 283 284 284 284 285 285 285 285 286 286 286 287 287 288 288 288 288 289 289 290 290 290 290 290 289 289 288 288 288 287 286 286 285 284 284 283 282 281 281 280 279 278 277 276 276 275 275 274 273 272 272 273 274 275 275
264 264 264 265 265 265 265 266 266 266 267 268 268 268 268 269 269 269 269 270 270 270 271 271 272 272 273 273 273 274 274 275 276 277 277 278 279 280 281 282 283 283 284 284 284 284 284 284 285 285 286 286 286 287 287 288 288 289 289 290 291 291 291 290 290 289 289 290 290 290 290 289 288 286 285 284 282 281 280 280 279 278 277 276 276 275 276 275 275 274 273 271 269 270 273 275 275
266 266 266 266 266 266 266 266 267 267 267 268 268 268 268 268 269 269 269 269 270 270 270 270 271 271 272 272 273 273 274 275 276 277 278 279 280 281 282 282 283 283 284 284 284 284 284 284 285 286 286 287 287 287 288 288 289 290 291 291 291 291 291 290 291 292 293 293 293 293 291 290 288 287 285 283 282 280 278 277 276 275 274 273 273 273 273 274 273 272 271 270 269 269 272 275 275
267 267 267 267 267 267 267 267 267 267 267 268 268 268 268 268 268 269 269 269 269 269 269 270 270 271 271 272 273 273 274 275 276 277 278 280 280 281 281 281 281 283 284 284 284 284 284 284 285 287 287 287 287 288 289 289 290 291 291 291 291 291 292 293 295 296 297 296 296 294 292 291 289 288 286 284 282 280 278 276 274 273 272 271 270 269 270 270 270 269 267 267 269 270 271 273 274
267 267 267 267 267 267 267 267 267 267 267 267 267 268 268 268 268 268 268 268 268 269 269 270 270 271 271 272 273 273 274 275 277 278 279 279 280 280 280 279 279 283 284 285 286 285 285 285 286 287 287 287 287 288 290 291 291 291 291 292 293 295 297 299 300 300 299 298 297 295 294 292 291 289 287 285 283 281 278 276 274 273 272 270 269 268 266 264 265 266 266 265 266 268 269 271 272
267 267 267 267 267 267 267 267 267 267 267 267 267 267 267 267 267 267 267 268 268 269 269 270 270 271 271 272 273 274 275 276 277 277 277 278 278 278 279 279 280 283 284 286 287 286 285 286 286 287 287 288 289 290 291 291 292 292 293 295 297 300 302 302 302 301 300 300 299 297 296 296 295 293 291 288 286 283 280 277 275 274 272 270 270 269 264 261 262 264 265 264 262 263 265 268 269
268 268 268 267 267 267 267 267 267 267 267 267 267 266 266 266 266 266 267 267 268 268 269 269 270 270 271 272 272 274 275 275 274 273 274 276 277 278 280 281 282 283 285 288 288 286 286 286 287 288 288 289 290 291 291 292 293 295 297 300 302 304 304 304 303 303 303 303 302 301 300 300 298 296 293 290 287 284 281 278 275 273 270 270 271 269 265 263 262 262 262 260 258 258 261 265 267
269 269 269 268 268 268 267 267 266 266 266 266 266 266 266 266 266 266 266 267 267 267 267 268 268 269 270 270 271 273 274 273 271 271 274 277 278 279 280 282 282 285 288 288 287 286 286 287 288 289 289 290 291 292 293 295 297 300 302 305 306 307 306 306 307 307 307 306 305 305 304 303 301 298 295 291 287 284 281 278 275 271 269 270 270 266 264 263 261 258 256 252 251 253 257 261 264
269 269 270 270 269 269 268 267 267 266 266 266 266 265 265 265 265 265 266 266 266 266 266 267 268 268 269 270 271 271 271 271 271 272 275 276 277 279 279 282 286 288 288 286 286 286 287 288 289 290 291 293 294 296 298 300 302 304 306 308 309 309 310 311 311 311 310 309 309 308 306 304 302 300 296 292 287 283 281 278 275 273 272 272 269 264 260 259 255 249 245 243 244 248 253 258 261
271 270 270 269 269 268 268 268 267 267 266 266 265 265 264 264 264 264 265 265 265 264 265 266 266 267 268 269 269 270 270 270 271 273 273 274 275 278 280 284 288 287 285 284 285 287 289 290 291 293 295 297 299 301 302 304 305 307 309 310 312 313 314 314 313 313 313 312 310 308 306 305 304 302 299 295 289 284 280 278 276 275 274 270 264 258 252 247 240 233 231 233 238 242 248 251 253
272 272 271 270 269 268 267 266 266 265 265 264 264 263 263 263 263 263 263 262 262 262 263 263 264 265 266 267 268 268 269 270 270 271 272 273 274 278 281 285 286 283 282 284 287 290 292 293 295 297 300 301 302 303 304 306 308 310 312 314 316 316 316 316 316 316 315 312 310 308 307 307 306 304 303 298 293 287 282 277 274 270 263 251 239 230 221 215 213 213 217 224 229 233 239 239 237
274 273 272 271 270 269 267 266 265 264 263 262 261 261 261 260 260 260 259 259 259 260 261 262 264 265 266 266 267 267 268 268 269 270 271 272 275 278 281 282 281 280 283 287 291 293 295 297 300 302 303 303 303 305 306 308 311 314 316 317 318 318 318 318 319 318 315 312 311 311 312 312 311 311 312 309 305 299 293 282 253 182 168 172 174 175 176 177 184 193 202 211 217 220 220 213 200
275 274 273 272 271 270 269 267 265 264 263 262 261 260 259 258 257 256 256 256 258 259 260 263 265 266 266 265 265 265 266 267 268 269 271 273 275 277 278 278 279 283 287 290 293 295 299 301 303 303 303 302 304 306 309 311 314 317 318 318 319 319 320 321 320 318 315 315 316 318 321 322 323 327 330 332 339 357 38 92 117 124 130 138 145 149 153 158 165 176 188 196 197 190 182 175 165
276 275 275 274 273 272 271 269 267 265 264 262 260 258 256 254 252 252 252 252 255 256 254 258 266 266 263 262 263 264 266 267 268 269 271 272 273 273 274 276 282 287 290 293 296 300 302 302 301 301 302 304 307 309 312 314 317 319 319 319 321 322 323 323 321 319 320 322 325 329 334 337 343 358 10 39 68 81 93 104 115 120 125 132 135 136 139 146 154 165 173 173 166 160 160 159 152
281 281 279 278 276 274 271 268 266 263 261 258 255 253 251 249 247 246 247 245 244 248 246 247 257 263 262 262 263 264 265 266 266 267 267 267 268 270 275 281 287 289 292 297 300 301 300 300 301 303 306 308 310 313 315 318 320 320 320 321 323 324 325 325 324 326 330 334 339 345 353 3 19 43 61 81 90 94 98 102 113 119 121 125 126 127 132 138 144 151 153 152 149 150 154 153 148
291 289 288 290 288 283 277 269 262 257 254 251 247 245 244 242 240 238 238 235 232 228 225 233 244 256 261 259 259 259 259 259 259 260 260 262 266 272 279 283 286 290 295 298 299 299 300 303 307 310 311 312 314 317 319 321 323 322 322 324 326 328 328 329 331 338 343 349 358 5 17 31 51 66 73 87 95 99 98 100 110 115 116 118 120 122 124 127 133 138 141 143 144 148 153 152 150
311 309 316 324 321 313 301 285 265 253 245 241 237 234 233 231 229 227 223 218 211 200 203 226 243 252 252 247 245 245 245 245 246 248 251 257 264 271 276 281 286 292 295 297 300 303 309 313 314 314 314 315 317 320 322 325 325 324 325 327 331 333 333 337 343 350 358 7 16 23 35 47 59 70 76 86 95 100 102 103 109 113 115 115 115 114 113 118 126 134 138 141 143 147 152 153 153
351 359 10 14 17 27 30 35 70 102 119 135 146 163 177 187 191 192 193 189 185 191 203 221 234 233 223 217 216 216 218 219 221 227 235 247 257 268 277 284 291 296 299 304 310 314 317 316 316 315 316 317 319 323 325 328 328 327 329 332 337 339 340 346 355 3 12 22 28 34 45 55 63 73 82 87 92 102 107 109 112 114 114 113 111 113 116 123 129 134 138 141 144 148 152 155 158
33 39 43 46 52 59 64 71 82 91 96 100 103 107 114 120 127 129 133 142 148 161 174 177 179 176 170 174 177 178 182 183 194 209 224 241 260 276 285 293 298 303 309 315 318 319 317 316 316 316 318 319 323 326 329 332 332 333 335 339 343 346 350 358 6 14 24 32 37 42 49 57 65 75 86 91 95 102 108 112 113 113 113 114 114 119 125 132 134 137 142 144 147 151 156 159 163
55 60 62 62 66 72 77 83 88 92 96 99 101 103 106 107 109 111 114 119 124 133 140 142 144 145 148 154 157 160 165 173 187 198 215 256 284 292 295 300 305 312 318 322 322 319 317 317 317 319 321 323 326 329 333 337 338 338 342 347 351 354 360 8 16 24 32 38 42 46 52 59 67 76 86 93 97 101 106 110 111 112 114 117 119 123 129 134 141 145 147 147 150 156 161 165 168
65 70 71 71 75 79 82 89 92 94 96 97 99 100 101 102 105 108 113 118 122 127 131 132 136 140 144 149 150 154 158 161 160 150 166 306 297 297 304 311 317 323 326 326 324 322 321 321 322 324 326 327 329 334 340 343 344 346 351 355 359 4 10 17 25 32 37 42 47 49 53 61 71 80 87 92 97 102 105 107 109 113 117 120 121 123 128 134 144 151 152 153 156 159 164 169 172
72 76 76 78 82 83 84 89 94 95 96 97 97 98 100 103 106 110 114 117 119 122 127 131 135 138 139 142 142 140 134 124 108 93 26 301 304 315 325 328 331 333 333 331 329 328 328 327 328 330 331 332 336 343 349 351 352 356 0 4 9 14 19 25 31 37 42 46 50 53 57 65 75 83 90 94 99 102 105 108 111 116 120 123 123 123 128 134 142 151 155 157 159 161 165 172 175
76 80 81 83 85 84 83 86 91 94 95 96 98 101 103 105 106 110 114 115 117 121 125 128 130 131 131 131 127 121 112 105 102 105 51 354 348 346 343 342 345 346 344 340 337 336 335 336 338 338 338 342 349 356 360 2 5 8 10 12 17 23 27 32 37 41 45 48 51 55 60 68 77 84 88 93 98 101 103 107 112 120 124 126 126 126 128 132 138 148 156 159 161 163 166 172 176
81 83 84 85 85 84 83 83 86 92 95 98 102 105 105 104 106 110 114 115 117 119 120 121 122 122 121 118 116 114 113 111 103 71 33 14 5 359 357 2 5 3 358 352 347 345 346 349 350 349 352 358 6 10 12 17 20 20 20 21 25 30 33 37 41 45 48 50 52 55 59 67 76 82 85 86 88 94 100 106 113 120 126 128 130 130 130 131 134 141 151 157 162 166 169 173 176
86 87 87 87 85 84 83 83 85 89 95 98 103 105 105 107 109 113 114 114 115 115 115 115 113 111 109 110 110 110 107 97 70 42 22 11 8 11 18 22 18 13 8 3 360 1 4 6 7 8 13 19 22 23 27 31 33 33 31 31 33 36 39 42 45 48 51 53 55 56 60 66 72 78 80 80 81 87 96 106 115 121 126 131 135 135 135 134 133 135 144 155 164 169 172 173 175
91 90 91 89 86 83 83 87 90 91 94 97 101 104 107 110 112 113 112 112 113 112 112 109 105 102 101 100 97 91 79 60 43 28 16 13 19 29 33 28 22 20 18 16 17 21 25 26 27 30 32 34 35 37 40 42 43 43 42 41 41 41 43 46 47 50 52 54 57 59 63 68 73 76 76 76 77 82 92 103 114 121 127 132 137 140 139 140 139 138 142 154 164 170 172 173 174
92 90 91 90 88 86 87 91 95 97 99 100 101 103 106 108 109 109 109 110 111 110 106 102 99 96 91 85 75 62 48 35 27 20 16 21 32 39 35 28 27 29 31 33 37 40 42 42 42 44 44 44 45 47 49 50 51 50 49 49 48 47 47 49 50 52 54 55 57 59 63 68 74 78 79 78 77 79 85 96 107 117 124 131 138 141 141 142 144 145 148 154 164 171 173 173 173
93 89 88 90 93 96 97 97 99 101 102 102 101 99 99 100 102 104 106 108 108 106 102 96 91 86 78 69 55 40 28 21 19 17 20 30 41 42 36 33 37 42 46 49 51 52 52 51 50 50 51 51 51 53 54 55 55 55 55 54 54 53 53 53 54 55 56 56 57 59 60 62 65 70 75 78 81 81 84 91 102 111 117 126 138 145 146 146 145 148 153 157 167 174 174 172 174
96 93 92 94 99 103 105 104 103 101 99 98 97 95 92 91 93 98 101 103 104 101 96 90 82 74 65 56 46 33 22 16 16 18 27 39 45 44 42 46 53 57 59 59 59 58 56 54 54 54 54 54 53 55 56 57 58 58 59 59 59 59 59 58 57 57 57 57 57 58 59 59 59 59 60 63 69 77 83 89 98 110 117 121 129 141 149 154 154 153 157 161 169 178 181 178 176
101 101 102 103 104 106 107 107 106 104 99 95 92 92 90 89 89 91 95 96 96 95 90 83 74 65 56 49 42 33 24 19 19 25 37 47 49 50 54 60 65 66 66 64 62 60 58 56 56 56 55 54 54 56 57 59 60 61 61 62 62 62 62 61 60 60 59 58 58 57 57 57 57 57 57 56 56 60 73 82 92 102 112 124 131 140 147 158 164 164 169 173 177 183 188 187 181
107 109 111 111 111 109 107 106 106 104 100 95 90 89 90 90 89 88 89 90 90 88 83 74 64 55 47 41 35 28 25 27 28 34 47 54 56 60 66 71 72 71 69 66 64 62 60 59 58 58 57 55 56 57 58 60 61 62 62 62 63 63 63 63 63 63 62 62 61 60 59 58 57 57 56 56 56 56 56 56 58 73 98 135 148 157 165 171 178 182 188 191 192 193 196 197 191
111 112 113 114 114 111 107 104 102 100 98 95 90 87 88 90 91 90 88 85 83 79 72 65 56 48 41 34 28 24 24 30 35 44 57 62 64 69 74 77 76 74 71 68 66 64 63 62 62 61 60 59 59 59 60 60 61 62 62 62 63 63 64 64 65 65 65 65 64 64 63 62 60 59 58 57 57 56 56 55 53 50 39 343 283 267 248 228 212 204 204 208 208 207 206 205 203
111 110 109 110 110 109 106 103 102 99 96 92 88 85 86 90 92 90 85 79 75 72 66 60 54 46 38 31 24 21 24 34 43 54 65 69 72 76 79 80 78 75 73 71 69 68 67 66 66 65 64 63 63 63 63 63 63 63 63 63 63 64 64 65 65 65 65 65 65 65 65 65 64 64 63 61 60 59 57 56 55 54 51 47 33 347 296 275 263 250 235 228 223 220 218 214 214
110 109 107 105 104 106 106 103 101 98 93 88 87 88 90 91 93 93 89 83 78 74 66 57 51 44 37 30 25 27 37 46 54 63 71 76 78 81 83 82 80 77 75 75 73 72 71 70 69 68 68 67 66 66 67 67 66 66 65 65 65 65 65 65 66 66 66 66 65 65 65 65 65 65 64 63 63 62 61 59 58 57 55 54 51 46 35 3 314 286 269 257 248 241 236 231 227
110 109 108 107 107 107 106 104 101 99 96 90 88 87 86 89 94 102 104 96 87 78 66 53 45 38 33 30 30 38 54 58 61 70 76 81 84 85 86 84 82 80 79 78 77 75 73 72 71 71 70 70 70 70 71 71 71 70 69 69 69 69 68 68 68 68 67 67 67 66 66 65 65 64 63 63 62 62 62 61 61 60 59 58 56 54 52 47 38 20 341 296 274 263 255 249 245
113 112 111 109 109 109 109 107 102 99 94 86 83 82 83 86 95 109 114 103 89 75 62 50 41 34 28 29 33 43 57 61 64 74 81 86 88 89 88 86 84 83 82 81 79 77 75 74 73 73 73 73 73 74 75 75 75 74 73 73 73 73 72 72 71 70 70 69 68 68 67 66 66 65 64 63 62 62 61 60 59 59 59 59 59 58 57 56 53 48 41 30 7 326 288 269 259
117 116 112 109 109 112 112 101 90 84 80 79 85 92 99 107 111 118 119 105 84 67 54 46 39 31 25 28 35 42 51 59 66 77 86 90 91 91 90 88 87 86 85 83 81 79 78 77 76 76 75 75 75 75 76 77 76 76 76 76 76 76 75 75 74 73 72 71 70 69 68 68 66 65 65 64 64 63 62 61 60 59 57 56 56 56 56 57 56 54 52 49 45 39 28 4 315
121 120 117 116 118 119 112 98 88 85 87 93 104 113 121 125 115 101 102 87 64 50 43 39 33 26 21 24 33 40 46 57 69 80 89 93 93 94 93 91 89 88 87 85 83 82 81 80 79 78 77 76 76 77 77 77 77 77 78 77 77 77 76 76 75 74 73 72 71 70 69 68 67 66 65 65 64 64 63 62 62 61 60 58 57 56 55 54 54 53 52 51 51 49 47 43 37
136 135 131 132 131 125 117 109 106 106 110 121 127 122 116 106 86 67 64 60 50 42 38 34 28 19 14 17 27 37 44 57 72 83 92 96 98 98 96 95 92 90 88 86 84 83 83 81 80 78 77 76 76 77 78 78 79 78 78 78 77 76 75 75 74 73 72 71 71 70 69 68 68 67 66 65 65 64 63 63 62 61 61 60 59 58 57 55 54 52 50 48 47 46 45 44 42
157 157 151 147 141 133 130 128 128 127 131 138 132 118 107 95 77 58 49 48 46 40 34 31 24 14 7 11 22 34 44 60 77 89 97 101 103 102 100 99 95 92 90 87 85 85 84 83 80 79 77 77 77 77 78 78 78 79 77 77 76 75 74 74 73 72 71 70 69 68 68 67 67 67 66 66 65 64 63 62 62 61 60 59 58 58 57 56 55 54 51 49 46 44 42 40 39
182 180 171 164 155 148 146 146 145 144 140 136 126 114 108 96 75 56 44 39 38 34 31 29 21 10 3 8 19 29 41 66 87 96 105 108 107 106 104 102 98 94 92 89 87 86 86 85 82 81 79 78 78 77 77 77 76 76 75 74 74 73 72 72 71 70 69 68 67 67 66 65 65 65 64 64 64 63 62 61 60 59 59 58 57 57 56 56 55 54 53 51 49 46 44 41 38
200 194 181 184 176 161 152 151 162 156 141 128 119 117 117 104 81 64 50 39 34 31 31 29 22 12 5 8 16 27 41 72 96 105 113 114 112 111 108 105 100 97 95 91 90 88 87 86 83 81 80 79 79 78 77 75 74 74 73 72 71 70 69 69 68 68 67 66 65 64 63 63 62 61 61 60 60 59 59 58 57 56 56 55 55 54 54 54 53 53 52 51 50 49 47 45 42
197 186 182 210 196 170 156 157 171 162 139 124 117 122 123 107 87 73 59 42 31 30 32 32 26 20 11 7 14 32 48 78 103 114 122 121 117 116 112 107 103 99 98 95 93 91 87 85 83 81 80 79 78 76 75 74 72 72 71 70 68 67 66 65 65 65 64 63 62 61 60 59 58 58 57 56 55 55 54 53 52 52 51 50 50 49 49 48 48 48 48 47 47 46 46 45 44
190 182 187 213 195 170 160 164 177 164 137 121 116 123 115 96 82 72 59 41 27 26 35 36 32 27 19 9 22 62 65 80 108 122 130 126 122 122 117 111 106 103 101 98 95 92 87 85 83 81 79 77 75 74 72 71 70 68 68 67 66 65 64 63 62 61 60 59 57 56 55 54 54 53 53 52 51 50 49 48 47 46 45 44 43 43 41 40 40 40 39 40 40 40 40 40 40
188 187 197 205 191 176 164 171 189 171 139 120 115 117 101 87 81 69 58 42 25 22 38 37 32 30 28 20 44 82 75 84 116 132 137 132 128 128 122 115 109 105 102 100 96 92 87 84 83 80 77 75 74 72 71 69 68 66 65 64 63 63 62 61 60 59 57 55 53 51 49 48 48 47 47 46 46 46 44 43 41 40 39 38 36 35 34 33 32 31 31 31 31 31 32 32 32
194 191 205 208 200 204 191 185 201 186 156 138 118 106 96 92 90 74 62 44 22 16 38 36 28 27 30 34 63 80 81 96 127 142 144 139 136 135 127 117 112 108 103 101 97 91 86 83 81 79 76 74 72 71 70 68 65 64 62 61 60 58 57 56 56 55 54 53 51 49 47 45 43 42 41 40 39 39 38 37 35 34 33 31 30 29 27 26 25 25 24 24 24 24 24 24 24
208 197 206 210 205 232 233 219 228 220 198 178 139 105 85 82 78 76 70 49 20 11 36 34 22 21 24 32 73 75 90 112 138 148 148 146 143 140 131 120 114 109 103 99 96 92 87 82 80 78 76 73 71 70 68 65 63 61 60 58 56 55 53 53 52 52 51 51 49 48 46 45 43 41 39 37 36 34 32 30 29 28 27 25 24 23 22 20 20 19 19 19 19 19 18 18 18
212 204 206 203 199 225 234 232 239 229 207 196 185 173 56 46 39 58 71 54 23 12 32 30 18 16 16 18 69 71 96 125 145 151 149 149 147 142 132 123 118 112 104 98 94 93 90 84 79 77 73 71 69 67 65 63 60 58 56 55 53 51 50 50 50 49 48 47 47 46 45 44 42 41 39 37 35 32 30 28 26 24 23 21 20 19 17 16 15 15 15 15 14 14 13 12 12
206 209 212 204 201 217 226 231 238 228 209 204 209 217 203 26 5 41 64 55 31 17 27 26 18 14 10 10 50 63 95 134 150 153 149 150 151 144 133 124 121 116 106 100 95 94 93 87 82 75 66 62 61 60 58 56 55 53 51 50 48 45 45 47 48 47 45 44 43 42 41 40 38 37 36 34 32 30 27 25 24 22 21 19 18 16 15 13 12 12 11 11 10 10 9 9 8
204 212 216 208 206 213 221 232 238 228 223 221 213 211 205 205 300 54 63 55 41 22 17 19 22 18 9 4 16 40 74 127 150 155 152 157 160 149 134 124 123 118 113 110 105 99 97 83 79 69 53 47 45 45 44 44 44 42 39 38 37 35 36 39 40 41 40 39 37 36 35 34 33 32 30 28 26 24 23 21 20 19 18 17 16 15 13 11 10 9 8 7 6 6 6 5 5
213 215 216 213 216 219 220 234 242 236 237 234 217 210 207 201 195 77 63 53 42 26 8 5 16 23 15 2 353 8 40 84 140 160 164 174 181 166 146 135 126 118 114 130 159 214 255 340 360 360 9 16 18 20 22 23 24 24 22 21 21 21 24 27 28 29 29 27 25 26 27 27 28 27 24 21 19 17 16 16 15 14 14 14 14 13 11 10 8 7 6 5 4 3 2 2 1
221 218 216 216 222 226 224 230 242 245 244 239 224 214 212 203 184 73 49 42 34 25 2 351 360 15 17 8 356 352 26 56 77 177 188 196 203 201 193 194 214 249 270 270 270 273 281 292 306 319 332 342 350 353 356 359 1 2 3 4 5 7 10 12 13 16 18 16 15 15 16 18 20 20 19 16 13 11 10 10 9 10 10 10 10 9 8 7 6 5 4 2 1 0 360 359 358
222 218 217 217 221 227 229 227 234 240 243 242 235 225 219 209 174 53 18 11 14 18 358 344 347 357 2 4 3 355 343 18 34 253 229 224 226 230 229 230 238 257 273 275 275 278 280 288 299 309 319 326 333 337 338 340 342 344 346 349 352 354 357 359 0 3 5 6 6 6 6 8 9 11 12 11 8 5 4 4 4 4 5 6 6 5 5 4 3 2 360 358 357 356 356 355 355
220 217 216 218 220 225 230 229 230 235 240 246 248 240 228 215 197 334 344 348 357 5 354 338 337 343 346 349 353 352 343 336 332 300 266 248 243 245 246 246 249 258 269 271 273 274 279 286 296 304 310 316 322 325 326 327 329 331 335 338 341 342 344 347 347 349 352 354 356 357 358 358 358 359 3 5 4 0 358 357 357 358 359 360 1 0 360 359 358 357 355 353 352 352 352 351 351
221 217 216 218 220 224 230 231 229 230 238 246 250 250 244 234 241 250 258 340 355 352 342 329 327 331 334 337 338 339 340 337 321 301 284 269 257 252 251 254 256 260 265 269 271 273 278 284 290 295 301 306 311 314 316 318 320 322 325 328 330 331 332 334 334 335 339 341 344 347 349 348 346 348 353 357 357 355 352 350 350 351 352 353 354 354 354 354 352 351 350 349 348 348 347 347 347